Rugby, ND

3:41 AM CST on December 07, 2019 (GMT -0600)
Rugby Municipal

Weather History for KRUG - October, 2019

Change the Weather History Date:

Friday, October 18, 2019

  Actual Average Record
Temperature  
Mean Temperature 46 °F -  
Max Temperature 57 °F 53 °F 76 °F (1953)
Min Temperature 35 °F 27 °F 2 °F (1992)
Degree Days  
Heating Degree Days 19    
Moisture  
Dew Point 41 °F    
Average Humidity 85    
Maximum Humidity 100    
Minimum Humidity 55    
Precipitation  
Precipitation 0.00 in - - ()
Sea Level Pressure  
Sea Level Pressure 29.42 in    
Wind  
Wind Speed 12 mph (WSW)    
Max Wind Speed 18 mph    
Max Gust Speed 24 mph    
Visibility 10 miles    
Events      
Averages and records for this station are not official NWS values.
T = Trace of Precipitation, MM = Missing Value Source: NWS Daily Summary

Daily Weather History Graph

Daily Weather History Graph

Search for Another Location

Airport or City:

Astronomy

Oct. 18, 2019 Rise Set
Actual Time 8:04 AM CDT 6:45 PM CDT
Civil Twilight 7:32 AM CDT 7:17 PM CDT
Nautical Twilight 6:56 AM CDT 7:53 PM CDT
Astronomical Twilight 6:19 AM CDT 8:29 PM CDT
Moon 9:44 PM CDT (10/18) 12:57 PM CDT (10/18)
Length of Visible Light 11h 44m
Length of Day
10h 41m
Waning Gibbous, 78% of the Moon is Illuminated
Oct 18
Waning Gibbous
Oct 21
Last Quarter
Oct 27
New
Nov 4
First Quarter
Nov 12
Full

Hourly Weather History & Observations

Time (CDT) Temp. Windchill Dew Point Humidity Pressure Visibility Wind Dir Wind Speed Gust Speed Precip Events Conditions
12:15 AM 46.4 °F 39.2 °F 41.0 °F 81% 29.45 in 10.0 mi SE 18.4 mph - N/A   Clear
12:35 AM 44.6 °F 37.8 °F 41.0 °F 87% 29.44 in 10.0 mi SE 15.0 mph - N/A   Clear
12:55 AM 44.6 °F 37.8 °F 41.0 °F 87% 29.43 in 10.0 mi SE 15.0 mph 21.9 mph N/A   Clear
1:15 AM 46.4 °F 39.5 °F 41.0 °F 81% 29.42 in 10.0 mi SE 17.3 mph 24.2 mph N/A   Clear
1:35 AM 46.4 °F 39.5 °F 41.0 °F 81% 29.42 in 10.0 mi SE 17.3 mph 23.0 mph N/A   Clear
1:55 AM 44.6 °F 37.8 °F 41.0 °F 87% 29.42 in 10.0 mi SE 15.0 mph 20.7 mph N/A   Clear
2:15 AM 44.6 °F 38.4 °F 41.0 °F 87% 29.42 in 10.0 mi SE 12.7 mph - N/A   Clear
2:35 AM 44.6 °F 38.1 °F 41.0 °F 87% 29.41 in 10.0 mi SE 13.8 mph - N/A   Clear
2:55 AM 44.6 °F 39.2 °F 41.0 °F 87% 29.41 in 10.0 mi SE 10.4 mph 16.1 mph N/A   Clear
3:15 AM 44.6 °F 39.2 °F 41.0 °F 87% 29.40 in 10.0 mi SE 10.4 mph - N/A   Clear
3:35 AM 42.8 °F 37.5 °F 41.0 °F 93% 29.39 in 10.0 mi ESE 9.2 mph - N/A   Clear
3:55 AM 42.8 °F 37.0 °F 41.0 °F 93% 29.39 in 10.0 mi ESE 10.4 mph - N/A   Clear
4:15 AM 42.8 °F 38.0 °F 41.0 °F 93% 29.39 in 10.0 mi SE 8.1 mph - N/A   Clear
4:35 AM 41.0 °F 35.8 °F 41.0 °F 100% 29.39 in 10.0 mi SE 8.1 mph - N/A   Clear
4:55 AM 41.0 °F 35.2 °F 41.0 °F 100% 29.38 in 10.0 mi SE 9.2 mph - N/A   Clear
5:15 AM 42.8 °F 38.0 °F 41.0 °F 93% 29.37 in 10.0 mi SE 8.1 mph - N/A   Clear
5:35 AM 41.0 °F 35.8 °F 41.0 °F 100% 29.37 in 10.0 mi SE 8.1 mph - N/A   Clear
5:55 AM 41.0 °F 36.4 °F 41.0 °F 100% 29.37 in 10.0 mi SSE 6.9 mph - N/A   Clear
6:15 AM 41.0 °F 35.8 °F 41.0 °F 100% 29.37 in 10.0 mi SSE 8.1 mph - N/A   Clear
6:35 AM 41.0 °F 37.1 °F 41.0 °F 100% 29.37 in 10.0 mi SSE 5.8 mph - N/A   Clear
6:55 AM 39.2 °F 35.9 °F 39.2 °F 100% 29.37 in 10.0 mi SSE 4.6 mph - N/A   Clear
7:15 AM 39.2 °F 35.0 °F 39.2 °F 100% 29.37 in 10.0 mi SSE 5.8 mph - N/A   Clear
7:35 AM 39.2 °F 35.9 °F 39.2 °F 100% 29.38 in 10.0 mi South 4.6 mph - N/A   Clear
7:55 AM 39.2 °F - 39.2 °F 100% 29.37 in 10.0 mi Calm Calm - N/A   Clear
8:15 AM 39.2 °F 35.9 °F 39.2 °F 100% 29.38 in 9.0 mi SW 4.6 mph - N/A   Clear
8:35 AM 39.2 °F - 39.2 °F 100% 29.37 in 10.0 mi Calm Calm - N/A   Clear
8:55 AM 39.2 °F 35.9 °F 39.2 °F 100% 29.38 in 9.0 mi WSW 4.6 mph - N/A   Clear
9:15 AM 39.2 °F - 39.2 °F 100% 29.39 in 9.0 mi Calm Calm - N/A   Clear
9:35 AM 39.2 °F 35.9 °F 39.2 °F 100% 29.38 in 9.0 mi NW 4.6 mph - N/A   Clear
9:55 AM 41.0 °F 36.4 °F 41.0 °F 100% 29.39 in 10.0 mi West 6.9 mph - N/A   Clear
10:15 AM 41.0 °F 35.2 °F 41.0 °F 100% 29.38 in 10.0 mi NW 9.2 mph - N/A   Clear
10:35 AM 41.0 °F 35.2 °F 41.0 °F 100% 29.39 in 10.0 mi WNW 9.2 mph 15.0 mph N/A   Clear
10:55 AM 42.8 °F 36.2 °F 42.8 °F 100% 29.37 in 10.0 mi NW 12.7 mph - N/A   Clear
11:15 AM 42.8 °F 35.8 °F 42.8 °F 100% 29.40 in 10.0 mi WNW 13.8 mph - N/A   Clear
11:35 AM 44.6 °F 39.7 °F 44.6 °F 100% 29.38 in 10.0 mi NW 9.2 mph - N/A   Clear
11:55 AM 46.4 °F 40.4 °F 42.8 °F 87% 29.40 in 10.0 mi WNW 13.8 mph - N/A   Clear
12:15 PM 48.2 °F - 42.8 °F 82% 29.39 in 10.0 mi NW 11.5 mph - N/A   Clear
12:35 PM 50.0 °F - 42.8 °F 76% 29.38 in 10.0 mi NW 13.8 mph - N/A   Clear
12:55 PM 50.0 °F - 41.0 °F 71% 29.40 in 10.0 mi WNW 17.3 mph - N/A   Clear
1:15 PM 50.0 °F - 41.0 °F 71% 29.38 in 10.0 mi NW 12.7 mph - N/A   Clear
1:35 PM 51.8 °F - 41.0 °F 67% 29.40 in 10.0 mi WNW 16.1 mph - N/A   Clear
1:55 PM 51.8 °F - 41.0 °F 67% 29.41 in 10.0 mi WNW 11.5 mph - N/A   Clear
2:15 PM 55.4 °F - 41.0 °F 58% 29.41 in 10.0 mi West 12.7 mph - N/A   Clear
2:35 PM 55.4 °F - 41.0 °F 58% 29.40 in 10.0 mi West 12.7 mph - N/A   Clear
2:55 PM 55.4 °F - 41.0 °F 58% 29.41 in 10.0 mi West 10.4 mph - N/A   Clear
3:15 PM 55.4 °F - 41.0 °F 58% 29.41 in 10.0 mi West 16.1 mph - N/A   Clear
3:35 PM 55.4 °F - 41.0 °F 58% 29.41 in 10.0 mi WNW 16.1 mph 23.0 mph N/A   Clear
3:55 PM 57.2 °F - 41.0 °F 55% 29.41 in 10.0 mi WNW 18.4 mph - N/A   Clear
4:15 PM 55.4 °F - 41.0 °F 58% 29.42 in 10.0 mi West 13.8 mph 20.7 mph N/A   Clear
4:35 PM 55.4 °F - 41.0 °F 58% 29.42 in 10.0 mi West 16.1 mph - N/A   Clear
4:55 PM 55.4 °F - 41.0 °F 58% 29.44 in 10.0 mi WNW 13.8 mph - N/A   Clear
5:15 PM 53.6 °F - 39.2 °F 58% 29.44 in 10.0 mi West 17.3 mph 24.2 mph N/A   Clear
5:35 PM 51.8 °F - 39.2 °F 62% 29.44 in 10.0 mi West 13.8 mph - N/A   Mostly Cloudy
5:55 PM 51.8 °F - 41.0 °F 67% 29.44 in 10.0 mi West 10.4 mph - N/A   Scattered Clouds
6:15 PM 50.0 °F - 41.0 °F 71% 29.44 in 10.0 mi West 9.2 mph - N/A   Clear
6:35 PM 48.2 °F - 41.0 °F 76% 29.43 in 10.0 mi West 5.8 mph - N/A   Mostly Cloudy
6:55 PM 48.2 °F - 41.0 °F 76% 29.45 in 10.0 mi WSW 9.2 mph - N/A   Mostly Cloudy
7:15 PM 48.2 °F - 41.0 °F 76% 29.45 in 10.0 mi WSW 8.1 mph - N/A   Overcast
7:35 PM 46.4 °F 41.5 °F 41.0 °F 81% 29.46 in 10.0 mi SW 10.4 mph - N/A   Mostly Cloudy
7:55 PM 44.6 °F 39.7 °F 41.0 °F 87% 29.47 in 10.0 mi SW 9.2 mph - N/A   Mostly Cloudy
8:15 PM 46.4 °F 41.9 °F 41.0 °F 81% 29.47 in 10.0 mi SW 9.2 mph - N/A   Partly Cloudy
8:35 PM 44.6 °F 39.2 °F 41.0 °F 87% 29.47 in 10.0 mi WSW 10.4 mph - N/A   Clear
8:55 PM 44.6 °F 40.2 °F 41.0 °F 87% 29.47 in 10.0 mi WSW 8.1 mph - N/A   Clear
9:15 PM 42.8 °F 38.0 °F 41.0 °F 93% 29.47 in 10.0 mi SW 8.1 mph - N/A   Clear
9:35 PM 42.8 °F 38.6 °F 41.0 °F 93% 29.48 in 10.0 mi WSW 6.9 mph - N/A   Clear
9:55 PM 41.0 °F 35.2 °F 39.2 °F 93% 29.48 in 10.0 mi WSW 9.2 mph - N/A   Clear
10:15 PM 41.0 °F 34.7 °F 39.2 °F 93% 29.48 in 10.0 mi WSW 10.4 mph - N/A   Clear
10:35 PM 39.2 °F 32.5 °F 37.4 °F 93% 29.48 in 10.0 mi WSW 10.4 mph - N/A   Clear
10:55 PM 37.4 °F 30.8 °F 37.4 °F 100% 29.48 in 10.0 mi WSW 9.2 mph - N/A   Clear
11:15 PM 37.4 °F 30.8 °F 35.6 °F 93% 29.48 in 10.0 mi WSW 9.2 mph - N/A   Clear
11:35 PM 35.6 °F 32.8 °F 35.6 °F 100% 29.49 in 10.0 mi WSW 3.5 mph - N/A   Clear
11:55 PM 39.2 °F 33.0 °F 37.4 °F 93% 29.49 in 10.0 mi SW 9.2 mph - N/A   Clear